GW7895 Weather Reports


time (UTC)temp
C
wind
direction
speed
KPH
gust
KPH
rain 1hr
cm
rain 24hr
cm
rain mn
cm
humidity
%
barometer
mb
20260906191431 25 195 11.3 14.5 0.00 0.00 0.00 76 1018.7
20260906190931 25 170 8.0 12.9 0.00 0.00 0.00 76 1018.8
20260906190431 25 182 4.8 6.4 0.00 0.00 0.00 76 1018.8
20260906185931 25 172 4.8 6.4 0.00 0.00 0.00 76 1018.8
20260906185433 25 158 3.2 4.8 0.00 0.00 0.00 77 1018.7
20260906184931 25 170 6.4 9.7 0.00 0.00 0.00 76 1018.7
20260906184432 25 167 4.8 6.4 0.00 0.00 0.00 76 1018.7
20260906183931 25 171 3.2 4.8 0.00 0.00 0.00 77 1018.7
20260906183432 24 175 3.2 4.8 0.00 0.00 0.00 78 1018.8
20260906182931 24 154 6.4 11.3 0.00 0.00 0.00 78 1018.9
20260906182431 24 125 3.2 8.0 0.00 0.00 0.00 78 1019.0
20260906181931 24 209 6.4 8.0 0.00 0.00 0.00 78 1019.0
20260906181431 24 129 3.2 4.8 0.00 0.00 0.00 79 1018.9
20260906180931 23 212 1.6 3.2 0.00 0.00 0.00 79 1018.8
20260906180433 23 205 6.4 14.5 0.00 0.00 0.00 79 1019.1
20260906175931 23 159 4.8 8.0 0.00 0.00 0.00 79 1019.0
20260906175431 23 186 8.0 17.7 0.00 0.00 0.00 80 1019.1
20260906174931 23 94 6.4 11.3 0.00 0.00 0.00 80 1019.1
20260906174431 23 172 3.2 6.4 0.00 0.00 0.00 80 1019.1
20260906173931 23 168 9.7 16.1 0.00 0.00 0.00 80 1019.1
20260906173431 23 108 4.8 9.7 0.00 0.00 0.00 80 1019.2
20260906172931 23 169 8.0 14.5 0.00 0.00 0.00 80 1019.3
20260906172431 23 166 4.8 8.0 0.00 0.00 0.00 80 1019.2
20260906171931 23 133 6.4 9.7 0.00 0.00 0.00 80 1019.3
20260906171431 23 153 4.8 8.0 0.00 0.00 0.00 80 1019.3
20260906170931 23 203 1.6 4.8 0.00 0.00 0.00 80 1019.3
20260906170431 23 139 6.4 9.7 0.00 0.00 0.00 80 1019.3
20260906165931 23 99 6.4 9.7 0.00 0.00 0.00 80 1019.4
20260906165431 23 187 4.8 11.3 0.00 0.00 0.00 80 1019.5
20260906164932 23 143 3.2 4.8 0.00 0.00 0.00 80 1019.5
20260906164431 23 161 9.7 12.9 0.00 0.00 0.00 80 1019.4
20260906163931 23 104 6.4 6.4 0.00 0.00 0.00 80 1019.5
20260906163431 23 197 9.7 14.5 0.00 0.00 0.00 80 1019.6
20260906162931 23 176 4.8 6.4 0.00 0.00 0.00 80 1019.5
20260906162432 23 129 3.2 4.8 0.00 0.00 0.00 80 1019.5
20260906161931 23 157 8.0 14.5 0.00 0.00 0.00 79 1019.5
20260906161431 23 112 4.8 9.7 0.00 0.00 0.00 80 1019.5
20260906160931 23 175 6.4 9.7 0.00 0.00 0.00 80 1019.5
20260906160434 23 133 8.0 12.9 0.00 0.00 0.00 80 1019.5
20260906155932 23 105 8.0 12.9 0.00 0.00 0.00 79 1019.6
20260906155431 23 98 3.2 3.2 0.00 0.00 0.00 80 1019.7
20260906154931 23 158 1.6 3.2 0.00 0.00 0.00 80 1019.7
20260906154431 23 203 8.0 9.7 0.00 0.00 0.00 80 1019.8
20260906153931 23 181 6.4 11.3 0.00 0.00 0.00 80 1019.7
20260906153431 23 149 12.9 12.9 0.00 0.00 0.00 80 1019.7
20260906152932 23 133 6.4 8.0 0.00 0.00 0.00 81 1019.7
20260906152431 23 175 3.2 8.0 0.00 0.00 0.00 81 1019.7
20260906151931 23 171 6.4 11.3 0.00 0.00 0.00 81 1019.7
20260906151431 23 155 6.4 8.0 0.00 0.00 0.00 81 1019.7
20260906150931 23 165 4.8 8.0 0.00 0.00 0.00 81 1019.7
20260906150431 23 144 6.4 8.0 0.00 0.00 0.00 81 1019.8
20260906145932 23 113 6.4 9.7 0.00 0.00 0.00 81 1019.7
20260906145431 23 195 4.8 8.0 0.00 0.00 0.00 81 1019.7
20260906144931 23 169 4.8 6.4 0.00 0.00 0.00 82 1019.6
20260906144431 23 156 6.4 12.9 0.00 0.00 0.00 81 1019.5
20260906143931 23 150 4.8 9.7 0.00 0.00 0.00 82 1019.3
20260906143432 23 137 4.8 11.3 0.00 0.00 0.00 82 1019.4
20260906142931 23 144 4.8 9.7 0.00 0.00 0.00 82 1019.4
20260906142436 23 149 6.4 11.3 0.00 0.00 0.00 83 1019.5
20260906141931 22 123 6.4 11.3 0.00 0.00 0.00 83 1019.5
20260906141431 22 129 4.8 9.7 0.00 0.00 0.00 84 1019.5
20260906140932 22 173 3.2 6.4 0.00 0.00 0.00 84 1019.5
20260906140432 22 182 8.0 9.7 0.00 0.00 0.00 84 1019.5
20260906135931 22 184 8.0 11.3 0.00 0.00 0.00 85 1019.6
20260906135431 22 183 8.0 11.3 0.00 0.00 0.00 85 1019.7
20260906134932 22 174 8.0 11.3 0.00 0.00 0.00 85 1019.6
20260906133954 22 165 1.6 3.2 0.00 0.00 0.00 86 1019.5
20260906133431 21 165 6.4 11.3 0.00 0.00 0.00 86 1019.5
20260906132931 21 143 4.8 8.0 0.00 0.00 0.00 87 1019.4
20260906132431 21 149 3.2 6.4 0.00 0.00 0.00 87 1019.3
20260906131931 21 163 4.8 9.7 0.00 0.00 0.00 87 1019.2
20260906131431 21 152 1.6 4.8 0.00 0.00 0.00 88 1019.2
20260906130931 21 149 3.2 4.8 0.00 0.00 0.00 88 1019.2
20260906130431 21 144 1.6 3.2 0.00 0.00 0.00 88 1019.2
20260906125931 21 171 4.8 8.0 0.00 0.00 0.00 88 1019.3
20260906125431 21 155 1.6 3.2 0.00 0.00 0.00 88 1019.4
20260906124932 21 177 4.8 11.3 0.00 0.00 0.00 89 1019.4
20260906124431 20 169 1.6 4.8 0.00 0.00 0.00 89 1019.4
20260906123931 20 129 1.6 4.8 0.00 0.00 0.00 89 1019.3
20260906123431 20 135 1.6 3.2 0.00 0.00 0.00 89 1019.3
20260906122931 20 151 3.2 3.2 0.00 0.00 0.00 89 1019.2
20260906122431 20 131 1.6 4.8 0.00 0.00 0.00 89 1019.2
20260906121931 20 109 1.6 3.2 0.00 0.00 0.00 89 1019.2
20260906121431 20 137 1.6 3.2 0.00 0.00 0.00 89 1019.2
20260906120931 20 130 3.2 3.2 0.00 0.00 0.00 89 1019.2
20260906120431 20 186 0.0 3.2 0.00 0.00 0.00 89 1019.1
20260906115931 20 191 1.6 3.2 0.00 0.00 0.00 89 1019.0
20260906115431 20 133 3.2 3.2 0.00 0.00 0.00 89 1019.0
20260906114931 20 186 3.2 4.8 0.00 0.00 0.00 89 1019.0
20260906114431 20 143 1.6 3.2 0.00 0.00 0.00 89 1018.9
20260906113931 20 142 1.6 3.2 0.00 0.00 0.00 89 1018.9
20260906113431 20 138 1.6 3.2 0.00 0.00 0.00 88 1018.9
20260906112931 20 160 1.6 3.2 0.00 0.00 0.00 88 1018.9
20260906112431 20 360 0.0 0.0 0.00 0.00 0.00 88 1018.8
20260906111931 20 360 0.0 0.0 0.00 0.00 0.00 88 1018.8
20260906111432 20 135 0.0 1.6 0.00 0.00 0.00 88 1018.8
20260906110931 20 104 1.6 3.2 0.00 0.00 0.00 88 1018.7
20260906110432 20 360 0.0 0.0 0.00 0.00 0.00 88 1018.7
20260906105931 20 360 0.0 0.0 0.00 0.00 0.00 88 1018.7
20260906105431 20 152 3.2 4.8 0.00 0.00 0.00 88 1018.6
20260906104931 21 124 1.6 3.2 0.00 0.00 0.00 88 1018.6
20260906104431 21 157 0.0 1.6 0.00 0.00 0.00 88 1018.6
20260906103931 21 160 1.6 3.2 0.00 0.00 0.00 87 1018.6
20260906103431 21 178 4.8 6.4 0.00 0.00 0.00 87 1018.6
20260906102932 21 155 1.6 3.2 0.00 0.00 0.00 87 1018.6
20260906102432 21 144 1.6 4.8 0.00 0.00 0.00 87 1018.6
20260906101931 21 188 0.0 1.6 0.00 0.00 0.00 87 1018.6
20260906101431 21 133 1.6 3.2 0.00 0.00 0.00 87 1018.5
20260906100931 21 360 0.0 0.0 0.00 0.00 0.00 87 1018.5
20260906100431 21 201 1.6 3.2 0.00 0.00 0.00 87 1018.4
20260906095931 21 179 1.6 3.2 0.00 0.00 0.00 86 1018.4
20260906095431 21 198 1.6 3.2 0.00 0.00 0.00 86 1018.4
20260906094931 21 196 0.0 3.2 0.00 0.00 0.00 86 1018.3
20260906094431 21 194 3.2 3.2 0.00 0.00 0.00 86 1018.2
20260906093931 21 198 1.6 3.2 0.00 0.00 0.00 86 1017.9
20260906093432 21 163 3.2 6.4 0.00 0.00 0.00 86 1017.7
20260906092931 21 192 1.6 4.8 0.00 0.00 0.00 86 1017.6
20260906092432 21 176 1.6 3.2 0.00 0.00 0.00 86 1017.7
20260906091931 21 195 4.8 6.4 0.00 0.00 0.00 86 1017.7
20260906091431 21 139 3.2 6.4 0.00 0.00 0.00 86 1017.6
20260906090931 21 117 1.6 6.4 0.00 0.00 0.00 86 1017.6
20260906090431 21 69 1.6 3.2 0.00 0.00 0.00 86 1017.6
20260906085931 21 151 0.0 1.6 0.00 0.00 0.00 85 1017.7
20260906085431 21 136 3.2 4.8 0.00 0.00 0.00 85 1017.8
20260906084931 21 102 3.2 3.2 0.00 0.00 0.00 85 1017.8
20260906084431 21 110 4.8 6.4 0.00 0.00 0.00 85 1017.7
20260906083931 22 113 1.6 3.2 0.00 0.00 0.00 85 1017.8
20260906083431 22 178 1.6 3.2 0.00 0.00 0.00 85 1017.6
20260906082931 22 141 1.6 3.2 0.00 0.00 0.00 85 1017.6
20260906082432 22 104 3.2 4.8 0.00 0.00 0.00 84 1017.5
20260906081931 22 108 3.2 4.8 0.00 0.00 0.00 85 1017.5
20260906081431 22 106 3.2 3.2 0.00 0.00 0.00 84 1017.5
20260906080931 22 125 3.2 6.4 0.00 0.00 0.00 84 1017.5
20260906080432 22 138 3.2 8.0 0.00 0.00 0.00 84 1017.5
20260906075933 22 101 3.2 3.2 0.00 0.00 0.00 84 1017.6
20260906075431 22 117 3.2 8.0 0.00 0.00 0.00 84 1017.4
20260906074932 22 105 4.8 8.0 0.00 0.00 0.00 84 1017.4
20260906074431 22 109 4.8 6.4 0.00 0.00 0.00 84 1017.5
20260906073931 22 121 1.6 3.2 0.00 0.00 0.00 84 1017.5
20260906073434 22 108 3.2 4.8 0.00 0.00 0.00 84 1017.5
20260906072931 22 150 1.6 4.8 0.00 0.00 0.00 84 1017.5
20260906072431 22 172 0.0 1.6 0.00 0.00 0.00 84 1017.5
20260906071931 22 360 0.0 0.0 0.00 0.00 0.00 84 1017.6
20260906071431 22 133 1.6 3.2 0.00 0.00 0.00 84 1017.7
20260906070931 22 167 1.6 3.2 0.00 0.00 0.00 84 1017.8
20260906070432 22 144 1.6 3.2 0.00 0.00 0.00 83 1017.8
20260906065936 22 146 1.6 3.2 0.00 0.00 0.00 83 1017.9
20260906065431 22 116 1.6 4.8 0.00 0.00 0.00 83 1017.9
20260906064933 22 360 0.0 0.0 0.00 0.00 0.00 83 1018.0
20260906064431 22 146 1.6 3.2 0.00 0.00 0.00 83 1018.0
20260906063931 22 98 1.6 3.2 0.00 0.00 0.00 83 1018.0
20260906063431 22 142 3.2 4.8 0.00 0.00 0.00 83 1017.9
20260906062931 22 148 3.2 3.2 0.00 0.00 0.00 83 1017.9
20260906062431 22 146 3.2 4.8 0.00 0.00 0.00 83 1017.8
20260906061931 22 167 1.6 4.8 0.00 0.00 0.00 83 1017.9
20260906061431 22 119 1.6 3.2 0.00 0.00 0.00 83 1017.9
20260906060931 22 121 3.2 6.4 0.00 0.00 0.00 83 1017.9
20260906060431 22 124 3.2 4.8 0.00 0.00 0.00 83 1017.9
20260906055931 22 100 1.6 6.4 0.00 0.00 0.00 83 1017.9
20260906055431 22 153 3.2 4.8 0.00 0.00 0.00 83 1017.8
20260906054931 22 136 3.2 4.8 0.00 0.00 0.00 83 1017.9
20260906054433 22 171 3.2 6.4 0.00 0.00 0.00 83 1017.8
20260906053932 22 136 1.6 4.8 0.00 0.00 0.00 83 1017.8
20260906053432 22 144 0.0 1.6 0.00 0.00 0.00 83 1017.8
20260906052931 22 114 3.2 4.8 0.00 0.00 0.00 83 1017.8
20260906052431 22 146 1.6 1.6 0.00 0.00 0.00 83 1017.8
20260906051931 22 360 0.0 0.0 0.00 0.00 0.00 82 1017.8
20260906051431 22 360 0.0 0.0 0.00 0.00 0.00 82 1017.9
20260906050931 23 360 0.0 0.0 0.00 0.00 0.00 82 1017.9
20260906050431 23 101 1.6 3.2 0.00 0.00 0.00 82 1017.9
20260906045930 23 97 0.0 3.2 0.00 0.00 0.00 82 1017.9
20260906045431 23 117 3.2 4.8 0.00 0.00 0.00 82 1017.9
20260906044931 23 143 1.6 3.2 0.00 0.00 0.00 82 1017.9
20260906044431 23 137 0.0 1.6 0.00 0.00 0.00 83 1018.0
20260906043931 23 154 1.6 3.2 0.00 0.00 0.00 82 1018.0
20260906043431 23 156 0.0 3.2 0.00 0.00 0.00 82 1018.2
20260906042931 23 360 0.0 0.0 0.00 0.00 0.00 82 1018.2
20260906042431 23 360 0.0 0.0 0.00 0.00 0.00 82 1018.3
20260906041931 23 106 3.2 3.2 0.00 0.00 0.00 82 1018.3
20260906041431 23 111 0.0 1.6 0.00 0.00 0.00 81 1018.3
20260906040932 23 360 0.0 0.0 0.00 0.00 0.00 81 1018.3
20260906040430 23 93 1.6 3.2 0.00 0.00 0.00 81 1018.3
20260906035931 23 142 1.6 3.2 0.00 0.00 0.00 81 1018.3
20260906035431 23 117 1.6 3.2 0.00 0.00 0.00 81 1018.2
20260906034931 23 360 0.0 0.0 0.00 0.00 0.00 81 1018.3
20260906034431 23 360 0.0 0.0 0.00 0.00 0.00 81 1018.4
20260906033931 23 82 1.6 4.8 0.00 0.00 0.00 80 1018.4
20260906033431 23 360 0.0 0.0 0.00 0.00 0.00 80 1018.3
20260906032931 23 360 0.0 0.0 0.00 0.00 0.00 80 1018.3
20260906032431 23 82 1.6 3.2 0.00 0.00 0.00 80 1018.3
20260906031931 23 360 0.0 0.0 0.00 0.00 0.00 80 1018.4
20260906031431 23 360 0.0 0.0 0.00 0.00 0.00 80 1018.3
20260906030931 24 360 0.0 0.0 0.00 0.00 0.00 80 1018.4
20260906030431 24 360 0.0 0.0 0.00 0.00 0.00 80 1018.3
20260906025931 24 135 1.6 1.6 0.00 0.00 0.00 80 1018.2
20260906025432 24 360 0.0 0.0 0.00 0.00 0.00 79 1018.2
20260906024932 24 360 0.0 0.0 0.00 0.00 0.00 79 1018.2
20260906024431 24 162 1.6 3.2 0.00 0.00 0.00 79 1018.3
20260906023931 24 193 1.6 3.2 0.00 0.00 0.00 79 1018.4
20260906023431 24 360 0.0 0.0 0.00 0.00 0.00 79 1018.3
20260906022931 24 146 3.2 4.8 0.00 0.00 0.00 79 1018.3
20260906022431 24 224 4.8 6.4 0.00 0.00 0.00 78 1018.3
20260906021931 25 216 3.2 3.2 0.00 0.00 0.00 78 1018.0
20260906021431 25 251 1.6 4.8 0.00 0.00 0.00 78 1017.9
20260906020931 25 220 4.8 6.4 0.00 0.00 0.00 78 1017.7
20260906020431 25 203 4.8 8.0 0.00 0.00 0.00 78 1017.5
20260906015931 25 159 1.6 4.8 0.00 0.00 0.00 78 1017.4
20260906015432 25 144 1.6 3.2 0.00 0.00 0.00 77 1017.2
20260906014931 25 189 3.2 3.2 0.00 0.00 0.00 77 1017.0
20260906014431 25 169 4.8 4.8 0.00 0.00 0.00 77 1016.9
20260906013931 25 191 1.6 1.6 0.00 0.00 0.00 77 1016.8
20260906013431 25 180 3.2 4.8 0.00 0.00 0.00 76 1016.5
20260906012931 25 205 3.2 4.8 0.00 0.00 0.00 75 1016.3
20260906012431 25 190 1.6 3.2 0.00 0.00 0.00 75 1016.2
20260906011931 25 183 3.2 4.8 0.00 0.00 0.00 74 1016.1
20260906011432 25 218 6.4 8.0 0.00 0.00 0.00 72 1016.0
20260906010931 25 197 3.2 6.4 0.00 0.00 0.00 72 1015.9
20260906010433 25 360 0.0 0.0 0.00 0.00 0.00 71 1015.8
20260906005931 25 112 3.2 6.4 0.00 0.00 0.00 71 1015.6
20260906005431 25 91 3.2 3.2 0.00 0.00 0.00 71 1015.5
20260906004932 26 110 3.2 6.4 0.00 0.00 0.00 70 1015.6
20260906004431 26 134 1.6 3.2 0.00 0.00 0.00 70 1015.7
20260906003932 26 140 0.0 3.2 0.00 0.00 0.00 70 1015.7
20260906003431 26 114 3.2 4.8 0.00 0.00 0.00 69 1015.5
20260906002931 26 93 3.2 4.8 0.00 0.00 0.00 69 1015.4
20260906002432 26 89 1.6 3.2 0.00 0.00 0.00 69 1015.4
20260906001931 26 95 1.6 3.2 0.00 0.00 0.00 69 1015.3
20260906001431 26 92 4.8 6.4 0.00 0.00 0.00 69 1015.2
20260906000931 26 135 4.8 8.0 0.00 0.00 0.00 69 1015.2
20260906000433 26 360 0.0 0.0 0.00 0.00 0.00 69 1015.2
20260905235932 27 90 3.2 4.8 0.00 0.00 0.00 69 1015.3
20260905235431 27 91 1.6 4.8 0.00 0.00 0.00 68 1015.5
20260905234932 27 101 3.2 6.4 0.00 0.00 0.00 69 1015.6
20260905234431 27 107 3.2 6.4 0.00 0.00 0.00 69 1015.6
20260905233931 27 90 6.4 9.7 0.00 0.00 0.00 68 1015.4
20260905233431 27 106 6.4 11.3 0.00 0.00 0.00 68 1015.5
20260905232931 27 100 3.2 6.4 0.00 0.00 0.00 69 1015.4
20260905232431 27 111 3.2 6.4 0.00 0.00 0.00 69 1015.3
20260905231931 27 89 4.8 6.4 0.00 0.00 0.00 68 1015.2
20260905231431 27 26 4.8 8.0 0.00 0.00 0.00 67 1015.2
20260905230931 27 69 6.4 9.7 0.00 0.00 0.00 68 1015.2
20260905230431 27 87 6.4 11.3 0.00 0.00 0.00 68 1015.2
20260905225931 27 90 3.2 4.8 0.00 0.00 0.00 68 1015.1
20260905225431 27 33 3.2 4.8 0.00 0.00 0.00 68 1015.1
20260905224931 27 103 4.8 9.7 0.00 0.00 0.00 67 1015.0
20260905224433 27 77 8.0 11.3 0.00 0.00 0.00 67 1014.9
20260905223931 27 96 6.4 8.0 0.00 0.00 0.00 66 1014.6
20260905223431 27 71 9.7 14.5 0.00 0.00 0.00 66 1014.6
20260905222931 27 105 6.4 9.7 0.00 0.00 0.00 66 1014.8
20260905222431 27 104 3.2 6.4 0.00 0.00 0.00 66 1015.0
20260905221931 27 58 6.4 8.0 0.00 0.00 0.00 66 1015.0
20260905221431 27 82 11.3 14.5 0.00 0.00 0.00 66 1015.0
20260905220931 27 60 11.3 16.1 0.00 0.00 0.00 66 1014.9
20260905220432 27 58 3.2 6.4 0.00 0.00 0.00 67 1015.2
20260905215931 27 115 4.8 8.0 0.00 0.00 0.00 66 1015.3
20260905215431 27 96 6.4 9.7 0.00 0.00 0.00 67 1015.3
20260905214931 27 109 12.9 17.7 0.00 0.00 0.00 68 1015.3
20260905214431 27 96 1.6 4.8 0.00 0.00 0.00 68 1015.4
20260905213931 27 93 8.0 11.3 0.00 0.00 0.00 67 1015.4
20260905213431 27 94 3.2 4.8 0.00 0.00 0.00 69 1015.4
20260905212931 27 86 4.8 8.0 0.00 0.00 0.00 69 1015.5
20260905212431 27 98 8.0 11.3 0.00 0.00 0.00 69 1015.5
20260905211931 27 77 1.6 4.8 0.00 0.00 0.00 70 1015.5
20260905211432 27 79 6.4 9.7 0.00 0.00 0.00 69 1015.4
20260905210931 27 26 3.2 4.8 0.00 0.00 0.00 69 1015.3
20260905210431 27 65 3.2 8.0 0.00 0.00 0.00 70 1015.2
20260905205931 27 102 9.7 22.5 0.00 0.00 0.00 69 1015.2
20260905205431 27 103 16.1 20.9 0.00 0.00 0.00 69 1015.6
20260905204932 27 62 9.7 12.9 0.00 0.00 0.00 70 1015.8
20260905204431 27 50 11.3 24.1 0.00 0.00 0.00 70 1016.1
20260905203932 27 359 3.2 4.8 0.00 0.00 0.00 70 1016.2
20260905203432 27 113 9.7 14.5 0.00 0.00 0.00 71 1016.3
20260905202932 27 102 3.2 6.4 0.00 0.00 0.00 72 1016.4
20260905202431 27 84 3.2 6.4 0.00 0.00 0.00 71 1016.4
20260905201932 27 72 6.4 11.3 0.00 0.00 0.00 71 1016.5
20260905201431 27 117 8.0 12.9 0.00 0.00 0.00 72 1016.5
20260905200931 27 91 6.4 9.7 0.00 0.00 0.00 72 1016.6
20260905200431 26 77 8.0 14.5 0.00 0.00 0.00 72 1016.8
20260905195931 26 232 1.6 3.2 0.00 0.00 0.00 73 1017.0
20260905195432 26 70 4.8 4.8 0.00 0.00 0.00 74 1017.1
20260905194932 26 101 1.6 4.8 0.00 0.00 0.00 75 1017.2
20260905194433 26 102 3.2 6.4 0.00 0.00 0.00 74 1017.2
20260905193931 26 103 4.8 9.7 0.00 0.00 0.00 75 1017.3
20260905193431 26 360 0.0 0.0 0.00 0.00 0.00 76 1017.3
20260905192932 26 107 1.6 8.0 0.00 0.00 0.00 75 1017.3
20260905192435 26 88 3.2 6.4 0.00 0.00 0.00 76 1017.4
20260905191931 26 69 1.6 4.8 0.00 0.00 0.00 77 1017.4